Miscellaneous Local Product
Issued by NWS Hastings, NE

Home | Current Version | Previous Version | Graphics & Text | Print | Product List | Glossary On
Versions: 1 2 3 4 5 6 7 8 9 10 11 12 13 14 15 16 17 18 19 20 21 22 23 24 25 26 27 28 29 30 31 32 33 34 35 36 37 38 39 40 41 42 43 44 45 46 47 48 49 50
000
AXUS43 KGID 301302
MISGRI

GID CWA HOURLY WEATHER ROUNDUP
NATIONAL WEATHER SERVICE HASTINGS NE
800 AM CDT WED JUL 30 2014

NOTE: "FAIR" INDICATES FEW OR NO CLOUDS BELOW 12,000 FEET WITH NO
SIGNIFICANT WEATHER AND/OR OBSTRUCTIONS TO VISIBILITY.

...SOUTH CENTRAL NEBRASKA...

CITY           SKY/WX    TMP DP  RH WIND       PRES   REMARKS
GRAND ISLAND   SUNNY     63  58  83 CALM      30.18R
HASTINGS       MOSUNNY   64  56  75 N3        30.17R
KEARNEY        MOSUNNY   63  55  77 N6        30.19R
ORD            SUNNY     59  56  89 CALM      30.18R
YORK           SUNNY     59  59 100 CALM      30.17R
AURORA         MOSUNNY   62  60  96 CALM      30.18R
LEXINGTON      MOSUNNY   64  60  85 CALM      30.20R
HOLDREGE       PTSUNNY   63  58  86 NE5       30.19R
HEBRON         PTSUNNY   64  57  77 CALM      30.16R

...NEBRASKA PANHANDLE...

CITY           SKY/WX    TMP DP  RH WIND       PRES   REMARKS
CHADRON        PTSUNNY   57  55  93 SW6       30.25R
ALLIANCE       PTSUNNY   62  54  74 N3        30.25S
SCOTTSBLUFF    CLOUDY    63  59  87 NW3       30.27R
SIDNEY         CLOUDY    63  60  90 E5        30.28S

...WESTERN AND NORTH CENTRAL NEBRASKA...

CITY           SKY/WX    TMP DP  RH WIND       PRES   REMARKS
VALENTINE      MOSUNNY   56  51  84 W3        30.21S
AINSWORTH      MOSUNNY   58  53  81 W6        30.21S
ONEILL         SUNNY     59  56  91 CALM      30.19R
BROKEN BOW     SUNNY     61  58  90 CALM      30.20R FOG
IMPERIAL       CLOUDY    63  60  90 NE5       30.23R
NORTH PLATTE   CLOUDY    64  60  87 E3        30.22R
MCCOOK         CLOUDY    63  62  97 NE5       30.20R

...EASTERN NEBRASKA...

CITY           SKY/WX    TMP DP  RH WIND       PRES   REMARKS
NORFOLK        SUNNY     60  55  83 CALM      30.16S
SO SIOUX CITY  SUNNY     60  57  89 NW3       30.15S
TEKAMAH        SUNNY     60  56  86 NW3       30.15R
ALBION         SUNNY     58  55  91 CALM      30.18R
OMAHA EPPLEY   MOSUNNY   61  57  87 N6        30.15S
OFFUTT AFB     SUNNY     60  60 100 NW3       30.14S
MILLARD        SUNNY     62  57  82 CALM      30.15R
LINCOLN        SUNNY     62  56  80 N3        30.16S
NEBRASKA CITY  MOSUNNY   62  58  86 CALM      30.14S
BEATRICE       MOSUNNY   62  58  84 CALM      30.15R
FALLS CITY     PTSUNNY   65  59  81 CALM      30.13R

...NORTHERN KANSAS...

CITY           SKY/WX    TMP DP  RH WIND       PRES   REMARKS
GOODLAND       LGT RAIN  59  57  93 E17       30.21R
HILL CITY      CLOUDY    66  60  81 NE10      30.15S
NORTON         CLOUDY    63  61  94 CALM      30.17R
PHILLIPSBURG   CLOUDY    64  64 100 CALM      30.16R
SMITH CENTER   CLOUDY    63  61  94 NE6       30.16R
HAYS           CLOUDY    66  55  68 E17       30.13R
RUSSELL        CLOUDY    67  59  75 E12       30.11R
CONCORDIA      CLOUDY    64  64 100 NE3       30.14S FOG
SALINA         CLOUDY    69  58  67 NE8       30.11S
TOPEKA         CLOUDY    68  61  78 CALM      30.12R



USA.gov is the U.S. government's official web portal to all federal, state and local government web resources and services.